Time,TemperatureF,DewpointF,PressureIn,WindDirection,WindDirectionDegrees,WindSpeedMPH,WindSpeedGustMPH,Humidity,HourlyPrecipIn,Conditions,Clouds,dailyrainin,SoftwareType,DateUTC
2013-10-15 00:12:00,48.0,45.0,30.38,ENE,70,0.0,2.0,90,0.00,,,0.01,,2013-10-15 07:12:00,
2013-10-15 00:21:00,47.0,45.0,30.39,ENE,72,1.0,2.0,92,0.00,,,0.01,,2013-10-15 07:21:00,
2013-10-15 00:42:00,48.0,46.0,30.39,North,6,1.0,2.0,92,0.00,,,0.01,,2013-10-15 07:42:00,
2013-10-15 00:52:00,48.0,45.0,30.38,NE,42,1.0,2.0,91,0.00,,,0.01,,2013-10-15 07:52:00,
2013-10-15 01:12:00,47.0,45.0,30.38,ENE,73,0.0,1.0,91,0.00,,,0.01,,2013-10-15 08:12:00,
2013-10-15 01:21:00,47.0,45.0,30.38,ENE,57,0.0,2.0,93,0.00,,,0.01,,2013-10-15 08:21:00,
2013-10-15 01:42:00,47.0,45.0,30.38,East,90,2.0,3.0,92,0.00,,,0.01,,2013-10-15 08:42:00,
2013-10-15 01:52:00,47.0,45.0,30.38,North,8,0.0,2.0,92,0.00,,,0.01,,2013-10-15 08:52:00,
2013-10-15 02:12:00,47.0,45.0,30.38,NE,51,0.0,1.0,93,0.00,,,0.01,,2013-10-15 09:12:00,
2013-10-15 02:22:00,47.0,45.0,30.38,ENE,75,0.0,2.0,93,0.00,,,0.01,,2013-10-15 09:22:00,
2013-10-15 02:53:00,46.0,44.0,30.38,NE,43,0.0,2.0,94,0.00,,,0.01,,2013-10-15 09:53:00,
2013-10-15 03:12:00,45.0,44.0,30.38,North,349,0.0,1.0,95,0.00,,,0.01,,2013-10-15 10:12:00,
2013-10-15 03:23:00,45.0,44.0,30.37,North,349,0.0,0.0,95,0.00,,,0.01,,2013-10-15 10:23:00,
2013-10-15 03:42:00,46.0,45.0,30.37,East,84,0.0,1.0,96,0.00,,,0.01,,2013-10-15 10:42:00,
2013-10-15 03:53:00,46.0,45.0,30.37,East,90,0.0,1.0,96,0.00,,,0.01,,2013-10-15 10:53:00,
2013-10-15 04:11:00,46.0,45.0,30.36,East,82,0.0,1.0,96,0.00,,,0.01,,2013-10-15 11:11:00,
2013-10-15 04:22:00,46.0,45.0,30.36,East,83,1.0,1.0,96,0.00,,,0.01,,2013-10-15 11:22:00,
2013-10-15 04:42:00,45.0,44.0,30.37,East,90,0.0,2.0,96,0.00,,,0.01,,2013-10-15 11:42:00,
2013-10-15 04:52:00,45.0,44.0,30.37,East,84,0.0,2.0,96,0.00,,,0.01,,2013-10-15 11:52:00,
2013-10-15 05:12:00,44.0,43.0,30.36,East,91,1.0,2.0,96,0.00,,,0.01,,2013-10-15 12:12:00,
2013-10-15 05:22:00,44.0,43.0,30.36,East,91,0.0,1.0,96,0.00,,,0.00,,2013-10-15 12:22:00,
2013-10-15 05:42:00,44.0,43.0,30.36,East,82,1.0,2.0,96,0.00,,,0.00,,2013-10-15 12:42:00,
2013-10-15 05:52:00,43.0,42.0,30.36,East,84,1.0,1.0,96,0.00,,,0.00,,2013-10-15 12:52:00,
2013-10-15 06:11:00,43.0,42.0,30.36,East,79,2.0,2.0,96,0.00,,,0.00,,2013-10-15 13:11:00,
2013-10-15 06:21:00,44.0,43.0,30.36,ESE,102,0.0,2.0,97,0.00,,,0.00,,2013-10-15 13:21:00,
2013-10-15 06:41:00,44.0,43.0,30.36,ENE,74,1.0,2.0,97,0.00,,,0.00,,2013-10-15 13:41:00,
2013-10-15 06:52:00,44.0,43.0,30.35,ENE,75,1.0,2.0,97,0.00,,,0.00,,2013-10-15 13:52:00,
2013-10-15 07:11:00,45.0,44.0,30.35,East,96,1.0,2.0,97,0.00,,,0.00,,2013-10-15 14:11:00,
2013-10-15 07:21:00,45.0,44.0,30.35,ENE,77,1.0,2.0,97,0.00,,,0.00,,2013-10-15 14:21:00,
2013-10-15 07:42:00,45.0,44.0,30.35,East,82,2.0,3.0,97,0.00,,,0.00,,2013-10-15 14:42:00,
2013-10-15 07:52:00,44.0,43.0,30.35,ENE,73,0.0,1.0,97,0.00,,,0.00,,2013-10-15 14:52:00,
2013-10-15 08:11:00,45.0,44.0,30.35,East,91,2.0,3.0,97,0.00,,,0.00,,2013-10-15 15:11:00,
2013-10-15 08:22:00,45.0,44.0,30.35,ESE,102,0.0,1.0,97,0.00,,,0.00,,2013-10-15 15:22:00,
2013-10-15 08:43:00,45.0,44.0,30.35,East,94,0.0,1.0,97,0.00,,,0.00,,2013-10-15 15:43:00,
2013-10-15 08:53:00,45.0,44.0,30.36,East,92,0.0,1.0,97,0.01,,,0.01,,2013-10-15 15:53:00,
2013-10-15 09:12:00,46.0,45.0,30.36,East,79,0.0,2.0,97,0.01,,,0.01,,2013-10-15 16:12:00,
2013-10-15 09:22:00,46.0,45.0,30.36,NNE,29,0.0,1.0,97,0.01,,,0.01,,2013-10-15 16:22:00,
2013-10-15 09:42:00,46.0,45.0,30.35,East,86,1.0,2.0,97,0.01,,,0.01,,2013-10-15 16:42:00,
2013-10-15 09:53:00,46.0,45.0,30.35,East,84,2.0,2.0,97,0.00,,,0.01,,2013-10-15 16:53:00,
2013-10-15 10:12:00,46.0,45.0,30.35,ENE,76,0.0,1.0,97,0.00,,,0.01,,2013-10-15 17:12:00,
2013-10-15 10:22:00,47.0,46.0,30.35,North,354,0.0,1.0,97,0.00,,,0.01,,2013-10-15 17:22:00,
2013-10-15 10:42:00,47.0,46.0,30.35,NW,321,0.0,2.0,97,0.00,,,0.01,,2013-10-15 17:42:00,
2013-10-15 10:53:00,48.0,47.0,30.34,South,191,0.0,1.0,97,0.00,,,0.01,,2013-10-15 17:53:00,
2013-10-15 11:12:00,47.0,46.0,30.34,SSW,211,0.0,1.0,97,0.00,,,0.01,,2013-10-15 18:12:00,
2013-10-15 11:21:00,48.0,47.0,30.34,SSW,212,1.0,3.0,97,0.00,,,0.01,,2013-10-15 18:21:00,
2013-10-15 11:42:00,47.0,46.0,30.33,WSW,255,2.0,3.0,97,0.00,,,0.01,,2013-10-15 18:42:00,
2013-10-15 11:52:00,47.0,46.0,30.33,SW,229,0.0,3.0,97,0.00,,,0.01,,2013-10-15 18:52:00,
2013-10-15 12:11:00,47.0,46.0,30.33,WSW,252,0.0,4.0,97,0.00,,,0.01,,2013-10-15 19:11:00,
2013-10-15 12:21:00,47.0,46.0,30.32,NW,306,1.0,3.0,97,0.00,,,0.01,,2013-10-15 19:21:00,
2013-10-15 12:42:00,47.0,46.0,30.32,SSW,208,2.0,4.0,97,0.00,,,0.01,,2013-10-15 19:42:00,
2013-10-15 12:52:00,47.0,46.0,30.32,WSW,255,1.0,2.0,97,0.00,,,0.01,,2013-10-15 19:52:00,
2013-10-15 13:12:00,47.0,46.0,30.31,SW,219,1.0,3.0,97,0.00,,,0.01,,2013-10-15 20:12:00,
2013-10-15 13:21:00,47.0,46.0,30.30,West,270,2.0,3.0,97,0.00,,,0.01,,2013-10-15 20:21:00,
2013-10-15 13:42:00,47.0,46.0,30.30,WSW,250,3.0,4.0,97,0.00,,,0.01,,2013-10-15 20:42:00,
2013-10-15 13:52:00,47.0,46.0,30.29,WNW,287,2.0,6.0,97,0.00,,,0.01,,2013-10-15 20:52:00,
2013-10-15 14:12:00,47.0,46.0,30.29,WNW,298,3.0,5.0,97,0.00,,,0.01,,2013-10-15 21:12:00,
2013-10-15 14:22:00,48.0,47.0,30.29,WSW,246,2.0,6.0,97,0.00,,,0.01,,2013-10-15 21:22:00,
2013-10-15 14:44:00,50.0,49.0,30.28,WNW,291,1.0,2.0,97,0.00,,,0.01,,2013-10-15 21:44:00,
2013-10-15 14:54:00,52.0,51.0,30.28,NNW,347,3.0,6.0,96,0.00,,,0.01,,2013-10-15 21:54:00,
2013-10-15 15:13:00,54.0,50.0,30.27,NE,37,3.0,5.0,86,0.00,,,0.01,,2013-10-15 22:13:00,
2013-10-15 15:23:00,56.0,51.0,30.26,NW,315,2.0,7.0,82,0.00,,,0.01,,2013-10-15 22:23:00,
2013-10-15 15:43:00,57.0,50.0,30.26,NE,47,2.0,5.0,77,0.00,,,0.01,,2013-10-15 22:43:00,
2013-10-15 15:53:00,58.0,49.0,30.25,West,278,2.0,4.0,72,0.00,,,0.01,,2013-10-15 22:53:00,
2013-10-15 16:12:00,57.0,48.0,30.24,WNW,294,2.0,5.0,73,0.00,,,0.01,,2013-10-15 23:12:00,
2013-10-15 16:22:00,57.0,50.0,30.23,SW,236,1.0,2.0,77,0.00,,,0.01,,2013-10-15 23:22:00,
2013-10-15 16:43:00,58.0,48.0,30.23,ENE,60,2.0,4.0,69,0.00,,,0.01,,2013-10-15 23:43:00,
2013-10-15 16:52:00,58.0,50.0,30.23,WSW,252,2.0,4.0,75,0.00,,,0.01,,2013-10-15 23:52:00,
2013-10-15 17:12:00,56.0,50.0,30.23,West,259,2.0,4.0,80,0.00,,,0.01,,2013-10-16 00:12:00,
2013-10-15 17:22:00,56.0,50.0,30.22,WNW,289,0.0,3.0,80,0.00,,,0.01,,2013-10-16 00:22:00,
2013-10-15 17:42:00,56.0,50.0,30.22,WNW,298,2.0,3.0,80,0.00,,,0.01,,2013-10-16 00:42:00,
2013-10-15 17:52:00,54.0,49.0,30.22,West,260,2.0,3.0,83,0.00,,,0.01,,2013-10-16 00:52:00,
2013-10-15 18:11:00,54.0,50.0,30.21,West,269,1.0,2.0,85,0.00,,,0.01,,2013-10-16 01:11:00,
2013-10-15 18:22:00,54.0,49.0,30.20,WSW,246,0.0,1.0,84,0.00,,,0.01,,2013-10-16 01:22:00,
2013-10-15 18:42:00,54.0,49.0,30.19,ENE,57,0.0,1.0,82,0.00,,,0.01,,2013-10-16 01:42:00,
2013-10-15 18:52:00,54.0,48.0,30.20,NNW,342,1.0,1.0,81,0.00,,,0.01,,2013-10-16 01:52:00,
2013-10-15 19:12:00,54.0,48.0,30.20,North,349,2.0,5.0,80,0.00,,,0.01,,2013-10-16 02:12:00,
2013-10-15 19:22:00,53.0,47.0,30.20,NNW,340,2.0,4.0,81,0.00,,,0.01,,2013-10-16 02:22:00,
2013-10-15 19:42:00,53.0,48.0,30.19,NE,36,0.0,3.0,82,0.00,,,0.01,,2013-10-16 02:42:00,
2013-10-15 19:52:00,53.0,47.0,30.19,NNW,333,3.0,6.0,81,0.00,,,0.01,,2013-10-16 02:52:00,
2013-10-15 20:11:00,53.0,48.0,30.19,NNW,335,1.0,4.0,82,0.00,,,0.01,,2013-10-16 03:11:00,
2013-10-15 20:22:00,52.0,47.0,30.19,NW,319,1.0,2.0,83,0.00,,,0.01,,2013-10-16 03:22:00,
2013-10-15 20:44:00,52.0,47.0,30.19,WNW,302,2.0,4.0,84,0.00,,,0.01,,2013-10-16 03:44:00,
2013-10-15 20:55:00,52.0,48.0,30.19,North,354,3.0,6.0,85,0.00,,,0.01,,2013-10-16 03:55:00,
2013-10-15 21:13:00,52.0,48.0,30.19,NNE,32,3.0,6.0,85,0.00,,,0.01,,2013-10-16 04:13:00,
2013-10-15 21:24:00,52.0,48.0,30.19,North,360,3.0,5.0,85,0.00,,,0.01,,2013-10-16 04:24:00,
2013-10-15 21:43:00,52.0,48.0,30.19,NNE,20,3.0,5.0,86,0.00,,,0.01,,2013-10-16 04:43:00,
2013-10-15 21:54:00,52.0,48.0,30.18,NNE,23,4.0,7.0,86,0.00,,,0.01,,2013-10-16 04:54:00,
2013-10-15 22:13:00,52.0,48.0,30.19,NNE,19,3.0,6.0,86,0.00,,,0.01,,2013-10-16 05:13:00,
2013-10-15 22:22:00,51.0,47.0,30.19,NNE,12,2.0,4.0,87,0.00,,,0.01,,2013-10-16 05:22:00,
2013-10-15 22:43:00,51.0,48.0,30.19,NNW,328,3.0,7.0,88,0.00,,,0.01,,2013-10-16 05:43:00,
2013-10-15 22:53:00,51.0,48.0,30.19,NNW,335,2.0,4.0,89,0.00,,,0.01,,2013-10-16 05:53:00,
2013-10-15 23:12:00,51.0,48.0,30.19,NNE,12,2.0,4.0,89,0.00,,,0.01,,2013-10-16 06:12:00,
2013-10-15 23:22:00,51.0,48.0,30.19,NW,324,2.0,6.0,88,0.00,,,0.01,,2013-10-16 06:22:00,
2013-10-15 23:42:00,51.0,48.0,30.19,NNE,23,2.0,4.0,89,0.00,,,0.01,,2013-10-16 06:42:00,
2013-10-15 23:52:00,51.0,48.0,30.19,NNW,342,3.0,4.0,90,0.00,,,0.01,,2013-10-16 06:52:00,